This demonstration page uses our WeatherBlox Daily Observations layout. Learn more.

Left ArrowRight Arrow

Hourly Observations for December 25, 2019

Temp ( °F °C ) Dew Point ( °F °C ) Humidity (%) Winds ( mph kmh ) Pressure ( in mb ) Visibility ( mi km ) Precip ( " mm )
12:51 am 00:51 Cloudy 43 6.1 42 5.6 97 97 N N/A 29.85 1011 10 16 N/A
1:51 am 01:51 Mostly Cloudy 43 6.1 41 5 93 93 N 6 9 29.85 1011 10 16 N/A
2:18 am 02:18 Mostly Cloudy 44 6.7 43 6.1 96 96 N N/A 29.91 1013 10 16 N/A
2:35 am 02:35 Cloudy 43 6.1 42 5.6 97 97 N N/A 29.93 1014 10 16 N/A
2:51 am 02:51 Cloudy 43 6.1 43 6.1 100 100 SE 3 6 29.87 1011 10 16 N/A
3:02 am 03:02 Mostly Cloudy 43 6.1 43 6.1 100 100 E 3 6 29.93 1014 10 16 N/A
3:28 am 03:28 Partly Cloudy 43 6.1 42 5.6 97 97 NNE 6 9 29.94 1014 10 16 N/A
3:51 am 03:51 Partly Cloudy 43 6.1 42 5.6 97 97 NE 3 6 29.88 1012 10 16 N/A
4:51 am 04:51 Clear 42 5.6 41 5 96 96 W 7 11 29.87 1012 10 16 N/A
5:51 am 05:51 Clear 40 4.4 39 3.9 97 97 SW 6 9 29.89 1012 10 16 N/A
6:51 am 06:51 Partly Cloudy 38 3.3 37 2.8 97 97 N N/A 29.92 1013 10 16 N/A
7:51 am 07:51 Sunny 37 2.8 36 2.2 96 96 N N/A 29.95 1014 10 16 N/A
8:51 am 08:51 Sunny 44 6.7 40 4.4 85 85 ESE 3 6 29.95 1014 10 16 N/A
9:51 am 09:51 Sunny 46 7.8 39 3.9 77 77 S 6 9 29.95 1014 10 16 N/A
10:51 am 10:51 Sunny 51 10.6 40 4.4 66 66 SE 6 9 29.93 1014 10 16 N/A
11:51 am 11:51 Partly Cloudy 55 12.8 41 5 59 59 NE 5 7 29.89 1012 10 16 N/A
12:51 pm 12:51 Sunny 56 13.3 36 2.2 47 47 VRB 5 7 29.87 1012 10 16 N/A
1:51 pm 13:51 Mostly Sunny 57 13.9 35 1.7 44 44 N N/A 29.84 1011 10 16 N/A
2:51 pm 14:51 Mostly Cloudy 57 13.9 35 1.7 44 44 W 6 9 29.84 1010 10 16 N/A
3:51 pm 15:51 Partly Cloudy 54 12.2 39 3.9 57 57 NNW 15 24 29.85 1011 10 16 N/A
4:51 pm 16:51 Partly Cloudy 52 11.1 37 2.8 57 57 WNW 12 19 29.88 1012 10 16 N/A
5:51 pm 17:51 Mostly Cloudy 50 10 38 3.3 63 63 W 10 17 29.90 1013 10 16 N/A
6:51 pm 18:51 Cloudy 47 8.3 40 4.4 77 77 W 10 17 29.92 1013 10 16 N/A
7:51 pm 19:51 Cloudy 47 8.3 40 4.4 77 77 NW 10 17 29.93 1014 10 16 N/A
8:51 pm 20:51 Mostly Clear 44 6.7 39 3.9 83 83 N N/A 29.95 1014 10 16 N/A
9:51 pm 21:51 Partly Cloudy 42 5.6 38 3.3 85 85 N 5 7 29.96 1015 10 16 N/A
10:51 pm 22:51 Mostly Clear 41 5 38 3.3 89 89 NW 5 7 29.96 1015 10 16 N/A
11:51 pm 23:51 Mostly Cloudy 38 3.3 37 2.8 97 97 N N/A 29.96 1015 10 16 N/A

Powered by AerisWeather